EW0651 Weather Reports


time (UTC)temp
F
wind
direction
speed
knots
gust
knots
rain 1hr
in
rain 24hr
in
rain mn
in
humidity
%
barometer
mb
20260906190018 83 340 0.9 3.5 0.00 0.00 0.00 75 1012.3
20260906184517 81 53 0.0 2.6 0.00 0.00 0.00 77 1012.5
20260906183019 81 65 0.0 2.6 0.00 0.00 0.00 78 1012.4
20260906181535 81 45 0.0 2.6 0.00 0.00 0.00 76 1012.4
20260906180020 81 61 0.0 3.5 0.00 0.00 0.00 77 1012.6
20260906174513 81 322 1.7 3.5 0.00 0.00 0.00 77 1012.8
20260906173012 81 5 0.0 1.7 0.00 0.00 0.00 75 1012.9
20260906171509 80 339 0.0 1.7 0.00 0.00 0.00 77 1013.0
20260906170008 80 12 0.0 1.7 0.00 0.00 0.00 78 1013.3
20260906164505 79 314 0.9 2.6 0.00 0.00 0.00 78 1013.4
20260906163004 79 326 0.0 1.7 0.00 0.00 0.00 77 1013.5
20260906161504 79 334 0.9 4.3 0.00 0.00 0.00 76 1013.4
20260906160002 79 331 0.9 3.5 0.00 0.00 0.00 78 1013.6
20260906154600 79 330 0.0 2.6 0.00 0.00 0.00 80 1013.4
20260906153059 78 351 0.0 2.6 0.00 0.00 0.00 80 1013.4
20260906151604 79 338 0.0 3.5 0.00 0.00 0.00 80 1013.4
20260906150057 78 267 0.0 1.7 0.00 0.00 0.00 80 1013.4
20260906144607 77 348 0.0 1.7 0.00 0.00 0.00 82 1013.4
20260906143056 76 291 0.0 1.7 0.00 0.00 0.00 82 1013.4
20260906141544 75 285 0.0 1.7 0.00 0.00 0.00 84 1013.2
20260906140042 74 254 0.9 1.7 0.00 0.00 0.00 85 1013.4
20260906134536 74 278 1.7 3.5 0.00 0.00 0.00 85 1013.4
20260906133035 74 233 2.6 5.2 0.00 0.00 0.00 85 1013.6
20260906131537 75 297 3.5 8.7 0.00 0.00 0.00 83 1013.3
20260906130029 75 101 0.9 1.7 0.00 0.00 0.00 81 1012.4
20260906124526 75 121 0.0 1.7 0.00 0.00 0.00 82 1012.3
20260906123025 75 123 0.0 1.7 0.00 0.00 0.00 81 1012.2
20260906121523 75 115 0.9 1.7 0.00 0.00 0.00 81 1012.0
20260906120021 75 94 0.9 2.6 0.00 0.00 0.00 81 1011.9
20260906114531 75 98 0.9 2.6 0.00 0.00 0.00 81 1011.8
20260906113017 74 114 0.9 2.6 0.00 0.00 0.00 83 1011.6
20260906111517 74 101 0.0 1.7 0.00 0.00 0.00 83 1011.5
20260906110015 74 87 0.9 1.7 0.00 0.00 0.00 83 1011.4
20260906104517 74 99 0.9 1.7 0.00 0.00 0.00 82 1011.5
20260906103013 74 93 0.9 1.7 0.00 0.00 0.00 82 1011.6
20260906101512 74 96 0.9 1.7 0.00 0.00 0.00 82 1011.4
20260906100013 75 98 0.9 2.6 0.00 0.00 0.00 82 1011.4
20260906094532 75 110 0.9 2.6 0.00 0.00 0.00 82 1011.4
20260906093018 75 120 0.9 1.7 0.00 0.00 0.00 83 1011.4
20260906091510 75 125 0.9 3.5 0.00 0.00 0.00 82 1011.4
20260906090014 75 105 0.9 3.5 0.00 0.00 0.00 82 1011.4
20260906084509 74 100 0.9 1.7 0.00 0.00 0.00 84 1011.4
20260906083008 74 82 0.0 1.7 0.00 0.00 0.00 84 1011.5
20260906081513 75 89 0.9 1.7 0.00 0.00 0.00 83 1011.5
20260906080009 75 100 0.9 1.7 0.00 0.00 0.00 82 1011.4
20260906074505 75 107 0.9 3.5 0.00 0.00 0.00 81 1011.4
20260906073005 76 105 0.9 1.7 0.00 0.00 0.00 82 1011.4
20260906071504 75 98 0.0 1.7 0.00 0.00 0.00 82 1011.3
20260906070002 75 96 0.9 1.7 0.00 0.00 0.00 84 1011.2
20260906064600 76 96 0.9 1.7 0.00 0.00 0.00 82 1011.3
20260906063059 75 96 0.9 1.7 0.00 0.00 0.00 83 1011.4
20260906061559 75 85 0.9 2.6 0.00 0.00 0.00 83 1011.5
20260906060100 76 96 0.9 2.6 0.00 0.00 0.00 82 1011.4
20260906054607 76 75 0.9 1.7 0.00 0.00 0.00 81 1011.4
20260906053053 77 82 0.9 1.7 0.00 0.00 0.00 81 1011.5
20260906051602 77 81 0.9 1.7 0.00 0.00 0.00 80 1011.4
20260906050056 77 92 0.9 1.7 0.00 0.00 0.00 80 1011.3
20260906044554 77 121 0.9 1.7 0.00 0.00 0.00 81 1011.3
20260906043045 78 114 0.9 2.6 0.00 0.00 0.00 79 1011.2
20260906041545 77 103 0.9 1.7 0.00 0.00 0.00 82 1011.3
20260906040052 78 84 0.9 2.6 0.00 0.00 0.00 81 1011.2
20260906034544 78 82 0.9 2.6 0.00 0.00 0.00 80 1011.1
20260906033048 78 78 0.9 1.7 0.00 0.00 0.00 80 1011.1
20260906031543 79 78 0.9 1.7 0.00 0.00 0.00 78 1011.0
20260906030043 79 81 0.9 3.5 0.00 0.00 0.00 78 1010.8
20260906024549 80 84 0.9 2.6 0.00 0.00 0.00 75 1010.5
20260906023041 81 84 0.9 3.5 0.00 0.00 0.00 74 1010.1
20260906021541 81 88 1.7 2.6 0.00 0.00 0.00 74 1010.0
20260906020041 80 88 0.9 1.7 0.00 0.00 0.00 74 1009.7
20260906014604 81 116 0.0 1.7 0.00 0.00 0.00 73 1009.5
20260906013046 81 116 0.0 1.7 0.00 0.00 0.00 73 1009.2
20260906011541 81 116 0.0 1.7 0.00 0.00 0.00 74 1009.1
20260906010039 82 116 0.0 1.7 0.00 0.00 0.00 73 1009.1
20260906004539 85 116 0.0 1.7 0.00 0.00 0.00 68 1008.9
20260906003038 87 122 0.9 3.5 0.00 0.00 0.00 66 1009.0
20260906001537 88 113 2.6 3.5 0.00 0.00 0.00 64 1008.9
20260906000041 89 127 1.7 4.3 0.00 0.00 0.00 62 1009.1
20260905234537 89 145 2.6 4.3 0.00 0.00 0.00 62 1009.1
20260905233035 90 148 3.5 8.7 0.00 0.00 0.00 61 1009.1
20260905231535 91 148 4.3 8.7 0.00 0.00 0.00 58 1008.9
20260905230034 92 136 5.2 11.3 0.00 0.00 0.00 56 1008.9
20260905224533 92 158 5.2 10.4 0.00 0.00 0.00 55 1008.9
20260905223033 93 132 5.2 11.3 0.00 0.00 0.00 53 1008.8
20260905221536 93 179 5.2 11.3 0.00 0.00 0.00 53 1008.8
20260905220030 94 150 5.2 12.2 0.00 0.00 0.00 54 1008.7
20260905214530 94 130 7.0 11.3 0.00 0.00 0.00 53 1008.8
20260905213026 94 109 6.1 9.6 0.00 0.00 0.00 56 1009.1
20260905211534 94 120 6.1 13.9 0.00 0.00 0.00 57 1009.2
20260905210022 93 76 5.2 9.6 0.00 0.00 0.00 61 1009.4
20260905204526 92 80 4.3 9.6 0.00 0.00 0.00 61 1009.8
20260905203018 92 71 7.0 13.9 0.00 0.00 0.00 63 1010.1
20260905201516 92 59 5.2 13.0 0.00 0.00 0.00 62 1010.4
20260905200018 91 88 4.3 11.3 0.00 0.00 0.00 67 1010.7
20260905194511 91 68 6.1 13.9 0.00 0.00 0.00 64 1011.1
20260905193011 91 74 7.8 17.4 0.00 0.00 0.00 64 1011.3
20260905191511 91 64 7.8 14.8 0.00 0.00 0.00 65 1011.6